This demonstration page uses our WeatherBlox Daily Observations layout. Learn more.

Hourly Observations for August 3, 2015

Temp ( °F °C ) Dew Point ( °F °C ) Humidity (%) Winds ( mph kmh ) Pressure ( in mb ) Visibility ( mi km ) Precip ( " mm )
12:15 am 00:15 Clear 68 19.8 56 13.3 66 66 Calm 29.85 1011 10 16.0934 0 0
12:35 am 00:35 Clear 66 18.9 56 13.2 70 70 NE 8 13 29.85 1011 10 16.0934 0 0
12:55 am 00:55 Clear 66 18.8 56 13.3 71 71 ENE 6 9 29.91 1013 10 16.0934 0 0
1:15 am 01:15 Clear 64 17.5 57 13.9 80 80 NE 3 6 29.91 1013 10 16.0934 0 0
1:35 am 01:35 Clear 62 16.7 57 14 84 84 Calm 29.91 1013 10 16.0934 0 0
1:55 am 01:55 Clear 64 17.6 58 14.2 81 81 Calm 29.91 1013 10 16.0934 0 0
2:15 am 02:15 Clear 63 17.3 58 14.2 82 82 Calm 29.91 1013 10 16.0934 0 0
2:35 am 02:35 Clear 62 16.8 57 14 84 84 N 3 6 29.91 1013 10 16.0934 0 0
2:55 am 02:55 Clear 61 16 57 13.9 87 87 N 5 7 29.91 1013 10 16.0934 0 0
3:15 am 03:15 Clear 60 15.5 57 14 91 91 NNE 7 11 29.91 1013 10 16.0934 0 0
3:35 am 03:35 Clear 61 16.2 58 14.2 88 88 N 7 11 29.91 1013 10 16.0934 0 0
3:55 am 03:55 Clear 60 15.8 57 14 89 89 NNE 7 11 29.88 1012 10 16.0934 0 0
4:15 am 04:15 Clear 61 16 57 14.1 89 89 NNE 6 9 29.91 1013 10 16.0934 0 0
4:35 am 04:35 Clear 60 15.6 57 14.1 91 91 NNE 7 11 29.91 1013 10 16.0934 0 0
4:55 am 04:55 Clear 60 15.6 58 14.3 92 92 NNE 6 9 29.91 1013 10 16.0934 0 0
5:15 am 05:15 Clear 61 16.1 59 14.9 93 93 NNE 3 6 29.91 1013 10 16.0934 0 0
5:35 am 05:35 Clear 62 16.5 59 15.1 92 92 NE 3 6 29.91 1013 10 16.0934 0 0
5:55 am 05:55 Clear 62 16.5 60 15.5 94 94 E 3 6 29.91 1013 10 16.0934 0 0
6:15 am 06:15 Clear 62 16.5 60 15.5 94 94 Calm 29.91 1013 10 16.0934 0 0
6:35 am 06:35 Clear 62 16.5 60 15.6 94 94 NE 7 11 29.91 1013 7 11.26538 0 0
6:55 am 06:55 Sunny with Mist and Fog 63 17.1 61 16.2 94 94 E 8 13 29.91 1013 5 8.0467 0 0
7:15 am 07:15 Sunny 64 17.5 62 16.5 94 94 E 8 13 29.91 1013 7 11.26538 0 0
7:35 am 07:35 Sunny 64 18 62 16.7 92 92 ENE 6 9 29.91 1013 10 16.0934 0 0
7:55 am 07:55 Sunny 65 18.3 63 17 92 92 ENE 5 7 29.94 1014 10 16.0934 0 0
8:15 am 08:15 Partly Cloudy 66 19 64 17.5 91 91 ENE 5 7 29.94 1014 7 11.26538 0 0
8:35 am 08:35 Mostly Cloudy 67 19.7 64 17.9 89 89 NE 9 15 29.91 1013 10 16.0934 0 0
8:55 am 08:55 Mostly Cloudy 69 20.4 65 18.4 88 88 ENE 9 15 29.91 1013 10 16.0934 0 0
9:15 am 09:15 Cloudy 69 20.6 65 18.5 88 88 NE 12 19 29.91 1013 10 16.0934 0 0
9:35 am 09:35 Cloudy 70 20.9 65 18.5 86 86 ENE 13 20 29.94 1014 10 16.0934 0 0
9:55 am 09:55 Cloudy 72 22 65 18.5 81 81 E 15 24 29.94 1014 10 16.0934 0 0
10:15 am 10:15 Cloudy 73 22.6 66 18.8 79 79 ENE 15 24 29.94 1014 10 16.0934 0 0
10:35 am 10:35 Cloudy 74 23.3 66 18.9 76 76 E 14 22 29.94 1014 10 16.0934 0 0
10:55 am 10:55 Partly Cloudy 75 23.8 65 18.5 72 72 E 14 22 29.91 1013 10 16.0934 0 0
11:15 am 11:15 Sunny 76 24.5 64 18 67 67 E 17 28 29.91 1013 10 16.0934 0 0
11:35 am 11:35 Sunny 77 25 64 18 65 65 E 16 26 29.88 1012 10 16.0934 0 0
11:55 am 11:55 Sunny 78 25.5 64 18 63 63 E 17 28 29.88 1012 10 16.0934 0 0
12:15 pm 12:15 Sunny 79 26.1 65 18.2 62 62 E 16 26 29.88 1012 10 16.0934 0 0
12:35 pm 12:35 Sunny 80 26.5 66 18.8 63 63 ESE 14 22 29.85 1011 10 16.0934 0 0
12:55 pm 12:55 Sunny 80 26.9 66 18.9 62 62 E 13 20 29.85 1011 10 16.0934 0 0
1:15 pm 13:15 Sunny 81 27.3 67 19.4 62 62 E 12 19 29.85 1011 10 16.0934 0 0
1:35 pm 13:35 Sunny 82 27.8 67 19.5 61 61 ESE 9 15 29.85 1011 10 16.0934 0 0
1:55 pm 13:55 Sunny 83 28.5 67 19.3 57 57 E 9 15 29.85 1011 10 16.0934 0 0
2:15 pm 14:15 Sunny 83 28.5 67 19.4 58 58 ESE 10 17 29.85 1011 10 16.0934 0 0
2:35 pm 14:35 Sunny 83 28.6 67 19.5 58 58 E 8 13 29.83 1010 10 16.0934 0 0
2:55 pm 14:55 Sunny 84 29 68 19.8 58 58 E 13 20 29.83 1010 10 16.0934 0 0
3:15 pm 15:15 Sunny 84 29.1 67 19.6 57 57 E 8 13 29.83 1010 10 16.0934 0 0
3:35 pm 15:35 Sunny 85 29.5 68 19.8 56 56 E 12 19 29.83 1010 10 16.0934 0 0
3:55 pm 15:55 Sunny 84 29.1 67 19.7 57 57 E 10 17 29.83 1010 10 16.0934 0 0
4:15 pm 16:15 Sunny 84 29 68 19.9 58 58 E 9 15 29.83 1010 10 16.0934 0 0
4:35 pm 16:35 Sunny 84 28.7 68 20 59 59 E 8 13 29.83 1010 10 16.0934 0 0
4:55 pm 16:55 Sunny 83 28.5 69 20.5 62 62 E 8 13 29.83 1010 10 16.0934 0 0
5:15 pm 17:15 Sunny 83 28.4 70 20.9 64 64 E 6 9 29.83 1010 10 16.0934 0 0
5:35 pm 17:35 Sunny 83 28.2 70 21.3 66 66 ENE 9 15 29.8 1009 10 16.0934 0 0
5:55 pm 17:55 Sunny 81 27 71 21.7 73 73 E 9 15 29.8 1009 10 16.0934 0 0
6:15 pm 18:15 Sunny 80 26.7 71 21.5 73 73 E 8 13 29.83 1010 10 16.0934 0 0
6:35 pm 18:35 Sunny 79 26 71 21.7 77 77 E 10 17 29.83 1010 10 16.0934 0 0
6:55 pm 18:55 Sunny 78 25.5 71 21.5 79 79 E 10 17 29.83 1010 10 16.0934 0 0
7:15 pm 19:15 Partly Cloudy 78 25.3 71 21.5 80 80 E 9 15 29.83 1010 10 16.0934 0 0
7:35 pm 19:35 Partly Cloudy 77 25.2 70 21.2 79 79 E 9 15 29.83 1010 10 16.0934 0 0
7:55 pm 19:55 Partly Cloudy 77 25.1 70 21.1 79 79 E 10 17 29.83 1010 10 16.0934 0 0
8:15 pm 20:15 Sunny 76 24.5 70 21.1 81 81 E 9 15 29.83 1010 10 16.0934 0 0
8:35 pm 20:35 Sunny 75 24.1 70 21.1 83 83 E 10 17 29.83 1010 10 16.0934 0 0
8:55 pm 20:55 Clear 75 23.7 70 21 85 85 E 10 17 29.83 1010 10 16.0934 0 0
9:15 pm 21:15 Clear 74 23.2 69 20.5 85 85 E 8 13 29.83 1010 10 16.0934 0 0
9:35 pm 21:35 Clear 73 23 69 20.5 86 86 E 10 17 29.83 1010 10 16.0934 0 0
9:55 pm 21:55 Clear 73 22.6 68 20 85 85 E 10 17 29.85 1011 10 16.0934 0 0
10:15 pm 22:15 Clear 72 22.2 67 19.5 85 85 E 8 13 29.88 1012 10 16.0934 0 0
10:35 pm 22:35 Clear 72 22 66 19.1 84 84 E 8 13 29.88 1012 10 16.0934 0 0
10:55 pm 22:55 Clear 71 21.7 66 19 85 85 E 9 15 29.88 1012 10 16.0934 0 0
11:15 pm 23:15 Clear 71 21.5 66 18.8 85 85 E 8 13 29.88 1012 10 16.0934 0 0
11:35 pm 23:35 Clear 70 21.1 66 18.7 86 86 E 9 15 29.88 1012 10 16.0934 0 0
11:55 pm 23:55 Clear 70 21 66 18.8 87 87 E 8 13 29.88 1012 10 16.0934 0 0

Powered by AerisWeather